Weather History for Grand Rapids, MN

Change the Weather History Date:

Saturday, November 30, 2013

  Actual Average Record
Temperature  
Mean Temperature 26 °F -  
Max Temperature 30 °F 29 °F 54 °F (1939)
Min Temperature 21 °F 11 °F -23 °F (1964)
Degree Days  
Heating Degree Days 40    
Moisture  
Dew Point 19 °F    
Average Humidity 75    
Maximum Humidity 86    
Minimum Humidity 64    
Precipitation  
Precipitation 0.00 in - - ()
Sea Level Pressure  
Sea Level Pressure 30.04 in    
Wind  
Wind Speed 6 mph (NNW)    
Max Wind Speed 13 mph    
Max Gust Speed -    
Visibility 10 miles    
Events      
Averages and records for this station are not official NWS values.
T = Trace of Precipitation, MM = Missing Value Source: NWS Daily Summary

Daily Weather History Graph

Daily Weather History Graph

Search for Another Location

Airport:

Trip Planner

Search our weather history database for the weather conditions in past years. The results will help you decide how hot, cold, wet, or windy it might be!

Date:

Astronomy

Nov. 30, 2013 Rise Set
Actual Time 7:38 AM CST 4:26 PM CST
Civil Twilight 7:04 AM CST 5:01 PM CST
Nautical Twilight 6:25 AM CST 5:39 PM CST
Astronomical Twilight 5:49 AM CST 6:16 PM CST
Moon 4:41 AM CST (11/30) 2:58 PM CST (11/30)
Length of Visible Light 9h 57m
Length of Day
8h 47m
Waning Crescent, 7% of the Moon is Illuminated
Nov 30
Waning Crescent
Dec 2
New
Dec 9
First Quarter
Dec 17
Full
Dec 25
Last Quarter

Hourly Weather History & Observations

Time (CST) Temp. Windchill Dew Point Humidity Pressure Visibility Wind Dir Wind Speed Gust Speed Precip Events Conditions
12:15 AM 24.8 °F 16.9 °F 15.8 °F 69% 30.02 in 10.0 mi SSE 6.9 mph - N/A   Clear
12:35 AM 24.8 °F 16.1 °F 15.8 °F 69% 30.01 in 10.0 mi SSE 8.1 mph - N/A   Clear
12:55 AM 24.8 °F 16.1 °F 15.8 °F 69% 30.00 in 10.0 mi SSE 8.1 mph - N/A   Clear
1:15 AM 24.8 °F 17.9 °F 15.8 °F 69% 30.01 in 10.0 mi SSE 5.8 mph - N/A   Clear
1:35 AM 23.0 °F 15.8 °F 15.8 °F 74% 30.00 in 10.0 mi SSE 5.8 mph - N/A   Clear
1:55 AM 23.0 °F 15.8 °F 17.6 °F 80% 29.99 in 10.0 mi SSE 5.8 mph - N/A   Clear
2:15 AM 23.0 °F 17.0 °F 17.6 °F 80% 30.00 in 10.0 mi SSE 4.6 mph - N/A   Clear
2:35 AM 24.8 °F 19.1 °F 17.6 °F 74% 30.00 in 10.0 mi SSE 4.6 mph - N/A   Clear
2:55 AM 24.8 °F 16.9 °F 17.6 °F 74% 29.99 in 10.0 mi SSE 6.9 mph - N/A   Clear
3:15 AM 24.8 °F 19.1 °F 17.6 °F 74% 29.99 in 10.0 mi SSE 4.6 mph - N/A   Clear
3:35 AM 23.0 °F 17.0 °F 17.6 °F 80% 29.98 in 10.0 mi SSE 4.6 mph - N/A   Clear
3:55 AM 23.0 °F 15.8 °F 17.6 °F 80% 29.98 in 10.0 mi SSE 5.8 mph - N/A   Clear
4:15 AM 23.0 °F 14.7 °F 17.6 °F 80% 29.97 in 10.0 mi South 6.9 mph - N/A   Clear
4:35 AM 24.8 °F 19.1 °F 19.4 °F 80% 29.97 in 10.0 mi South 4.6 mph - N/A   Clear
4:55 AM 24.8 °F 19.1 °F 19.4 °F 80% 29.97 in 10.0 mi South 4.6 mph - N/A   Partly Cloudy
5:15 AM 23.0 °F 17.0 °F 17.6 °F 80% 29.97 in 10.0 mi South 4.6 mph - N/A   Partly Cloudy
5:35 AM 23.0 °F 18.4 °F 17.6 °F 80% 29.97 in 10.0 mi South 3.5 mph - N/A   Partly Cloudy
5:55 AM 23.0 °F 18.4 °F 17.6 °F 80% 29.97 in 10.0 mi South 3.5 mph - N/A   Scattered Clouds
6:15 AM 23.0 °F 17.0 °F 17.6 °F 80% 29.97 in 10.0 mi South 4.6 mph - N/A   Scattered Clouds
6:35 AM 23.0 °F 18.4 °F 17.6 °F 80% 29.97 in 10.0 mi SSW 3.5 mph - N/A   Partly Cloudy
6:55 AM 23.0 °F 17.0 °F 17.6 °F 80% 29.97 in 10.0 mi South 4.6 mph - N/A   Scattered Clouds
7:15 AM 23.0 °F - 17.6 °F 80% 29.97 in 10.0 mi Calm Calm - N/A   Mostly Cloudy
7:35 AM 23.0 °F - 17.6 °F 80% 29.98 in 10.0 mi Calm Calm - N/A   Overcast
7:55 AM 21.2 °F - 17.6 °F 86% 29.98 in 8.0 mi Calm Calm - N/A   Mostly Cloudy
8:15 AM 23.0 °F - 17.6 °F 80% 29.98 in 9.0 mi Calm Calm - N/A   Partly Cloudy
8:35 AM 24.8 °F - 19.4 °F 80% 30.00 in 10.0 mi Calm Calm - N/A   Clear
8:55 AM 24.8 °F 19.1 °F 19.4 °F 80% 30.00 in 10.0 mi West 4.6 mph - N/A   Scattered Clouds
9:15 AM 23.0 °F 18.4 °F 17.6 °F 80% 30.00 in 9.0 mi NW 3.5 mph - N/A   Partly Cloudy
9:35 AM 24.8 °F 17.9 °F 19.4 °F 80% 30.00 in 9.0 mi West 5.8 mph - N/A   Clear
9:55 AM 24.8 °F 17.9 °F 19.4 °F 80% 30.00 in 10.0 mi WNW 5.8 mph - N/A   Clear
10:15 AM 26.6 °F 20.0 °F 19.4 °F 74% 30.01 in 10.0 mi WNW 5.8 mph - N/A   Clear
10:35 AM 26.6 °F 16.8 °F 19.4 °F 74% 30.02 in 10.0 mi NW 10.4 mph - N/A   Clear
10:55 AM 26.6 °F 19.1 °F 19.4 °F 74% 30.02 in 10.0 mi NW 6.9 mph - N/A   Clear
11:15 AM 26.6 °F 17.5 °F 19.4 °F 74% 30.02 in 10.0 mi NNW 9.2 mph - N/A   Clear
11:35 AM 26.6 °F 17.5 °F 19.4 °F 74% 30.02 in 10.0 mi NW 9.2 mph - N/A   Clear
11:55 AM 28.4 °F 19.7 °F 19.4 °F 69% 30.02 in 10.0 mi NW 9.2 mph - N/A   Clear
12:15 PM 28.4 °F 18.5 °F 19.4 °F 69% 30.02 in 10.0 mi NNW 11.5 mph - N/A   Clear
12:35 PM 28.4 °F 19.7 °F 19.4 °F 69% 30.02 in 10.0 mi NNW 9.2 mph - N/A   Clear
12:55 PM 28.4 °F 20.4 °F 19.4 °F 69% 30.02 in 10.0 mi NW 8.1 mph - N/A   Clear
1:15 PM 28.4 °F 19.1 °F 19.4 °F 69% 30.02 in 10.0 mi NNW 10.4 mph - N/A   Clear
1:35 PM 28.4 °F 19.7 °F 19.4 °F 69% 30.02 in 10.0 mi NW 9.2 mph - N/A   Clear
1:55 PM 30.2 °F 21.9 °F 21.2 °F 69% 30.02 in 10.0 mi NW 9.2 mph - N/A   Clear
2:15 PM 30.2 °F 21.9 °F 19.4 °F 64% 30.02 in 10.0 mi NNW 9.2 mph - N/A   Clear
2:35 PM 30.2 °F 21.3 °F 21.2 °F 69% 30.03 in 10.0 mi NNW 10.4 mph - N/A   Scattered Clouds
2:55 PM 30.2 °F 22.6 °F 19.4 °F 64% 30.03 in 10.0 mi North 8.1 mph - N/A   Overcast
3:15 PM 28.4 °F 18.0 °F 21.2 °F 74% 30.04 in 10.0 mi NNW 12.7 mph - N/A   Overcast
3:35 PM 28.4 °F 18.5 °F 21.2 °F 74% 30.05 in 10.0 mi North 11.5 mph - N/A   Overcast
3:55 PM 28.4 °F 19.7 °F 19.4 °F 69% 30.06 in 10.0 mi NNW 9.2 mph - N/A   Overcast
4:15 PM 28.4 °F 18.5 °F 19.4 °F 69% 30.07 in 10.0 mi NNW 11.5 mph - N/A   Overcast
4:35 PM 26.6 °F 18.2 °F 19.4 °F 74% 30.07 in 10.0 mi North 8.1 mph - N/A   Overcast
4:55 PM 26.6 °F 16.8 °F 19.4 °F 74% 30.08 in 10.0 mi North 10.4 mph - N/A   Overcast
5:15 PM 26.6 °F 19.1 °F 19.4 °F 74% 30.09 in 10.0 mi North 6.9 mph - N/A   Overcast
5:35 PM 26.6 °F 18.2 °F 19.4 °F 74% 30.10 in 10.0 mi North 8.1 mph - N/A   Overcast
5:55 PM 26.6 °F 19.1 °F 19.4 °F 74% 30.11 in 10.0 mi North 6.9 mph - N/A   Overcast
6:15 PM 26.6 °F 17.5 °F 19.4 °F 74% 30.11 in 10.0 mi North 9.2 mph - N/A   Overcast
6:35 PM 26.6 °F 16.8 °F 19.4 °F 74% 30.11 in 10.0 mi North 10.4 mph - N/A   Overcast
6:55 PM 26.6 °F 21.2 °F 19.4 °F 74% 30.11 in 10.0 mi North 4.6 mph - N/A   Overcast
7:15 PM 26.6 °F 17.5 °F 19.4 °F 74% 30.12 in 10.0 mi North 9.2 mph - N/A   Overcast
7:35 PM 26.6 °F 17.5 °F 19.4 °F 74% 30.12 in 10.0 mi North 9.2 mph - N/A   Overcast
7:55 PM 26.6 °F 20.0 °F 19.4 °F 74% 30.13 in 10.0 mi North 5.8 mph - N/A   Overcast
8:15 PM 26.6 °F 21.2 °F 19.4 °F 74% 30.13 in 10.0 mi NNE 4.6 mph - N/A   Overcast
8:35 PM 26.6 °F 20.0 °F 19.4 °F 74% 30.13 in 10.0 mi North 5.8 mph - N/A   Overcast
8:55 PM 24.8 °F 16.9 °F 19.4 °F 80% 30.13 in 10.0 mi North 6.9 mph - N/A   Overcast
9:15 PM 24.8 °F 17.9 °F 19.4 °F 80% 30.12 in 10.0 mi North 5.8 mph - N/A   Overcast
9:35 PM 24.8 °F 20.5 °F 19.4 °F 80% 30.13 in 10.0 mi North 3.5 mph - N/A   Overcast
9:55 PM 24.8 °F - 19.4 °F 80% 30.13 in 10.0 mi Calm Calm - N/A   Overcast
10:15 PM 24.8 °F 19.1 °F 19.4 °F 80% 30.14 in 10.0 mi NNW 4.6 mph - N/A   Overcast
10:35 PM 24.8 °F 16.9 °F 19.4 °F 80% 30.14 in 10.0 mi NNW 6.9 mph - N/A   Overcast
10:55 PM 24.8 °F - 19.4 °F 80% 30.14 in 10.0 mi Calm Calm - N/A   Overcast
11:15 PM 24.8 °F 19.1 °F 19.4 °F 80% 30.15 in 10.0 mi North 4.6 mph - N/A   Overcast
11:35 PM 24.8 °F 17.9 °F 19.4 °F 80% 30.15 in 10.0 mi North 5.8 mph - N/A   Overcast
11:55 PM 24.8 °F 20.5 °F 19.4 °F 80% 30.14 in 10.0 mi NNW 3.5 mph - N/A   Overcast